Other Public Products
Issued by NWS Grand Forks, ND

Home | Current Version | Previous Version | Graphics & Text | Print | Product List | Glossary On
Versions: 1 2 3 4 5 6 7 8 9 10 11 12 13 14 15 16 17 18 19 20 21 22 23 24 25 26 27 28 29 30 31 32 33 34 35 36 37 38 39 40 41 42 43 44 45 46 47 48 49 50
000
FPUS83 KFGF 291110
OPUFGF
PRAIRIE TO PINES WEATHER ROUNDUP
NATIONAL WEATHER SERVICE EASTERN NORTH DAKOTA/GRAND FORKS ND
600 AM CDT SUN MAR 29 2015

 **SATELLITE DATA USED TO AUGMENT SKY COVER AT AUTOMATED STATIONS**
 *****  WEATHER ACROSS EASTERN NORTH DAKOTA  *****

CITY           SKY/WX    TMP DP  RH WIND       PRES   REMARKS
GRAND FORKS    CLOUDY    41  37  86 N30G46    29.52R
GRAND FORKS AF NOT AVBL
GRAND CITY NWS   N/A     37 N/A N/A N20         N/A
BUXTON         NOT AVBL
DEVILS LAKE    CLOUDY    39  34  81 N26G33    29.65R
FARGO          RAIN      47  43  86 NW24G30   29.47R FOG
WAHPETON ARPT  CLOUDY    45  39  81 W15       29.49F
$$

 *****  WEATHER ACROSS CENTRAL AND WESTERN NORTH DAKOTA  *****

CITY           SKY/WX    TMP DP  RH WIND       PRES   REMARKS
JAMESTOWN      LGT RAIN  40  39  97 NW29G40   29.62R FOG
BISMARCK       CLOUDY    41  36  82 NW31G45   29.81R
MINOT          CLEAR     36  31  82 NW21G29   29.83R
MINOT AFB      CLEAR     36  35  99 NW23G30   29.82R
GARRISON         N/A     37  33  85 NW31G38   29.84R
WILLISTON      CLEAR     37  33  85 NW16      30.00R
DICKINSON      CLEAR     35  31  85 NW17      29.97R WCI  25
HETTINGER      PTCLDY    37  32  82 NW30G39   29.98R
$$

 *****  OTHER OBSERVATIONS NORTHEAST NORTH DAKOTA  *****

CITY           SKY/WX    TMP DP  RH WIND       PRES   REMARKS
WALHALLA         N/A     36  36 100 NW25G32   29.62R
LANGDON        NOT AVBL
CAVALIER       CLOUDY    37  34  87 NW26G35   29.58R
GRAFTON        NOT AVBL
CANDO          NOT AVBL
FORT TOTTEN      N/A     38  36  93 NW14      29.95S
ROLLA          CLOUDY    36  36 100 NW24G33   29.71R
RUGBY          CLOUDY    37  36  93 NW20G26   29.75R
 ***** THE ABOVE OBSERVATIONS ARE NON NWS ARE NOT QUALITY
        CONTROLLED AND MAY MIS-REPORT RAIN FOR SNOW...
$$

 *****  OTHER OBSERVATIONS SOUTHEAST NORTH DAKOTA *****

CITY           SKY/WX    TMP DP  RH WIND       PRES   REMARKS
COOPERSTOWN    NOT AVBL
VALLEY CITY    CLOUDY    41  41 100 NW28G37   29.57R FOG
OAKES          MIX PCPN  41  41 100 W18G24    29.57R
GWINNER        CLOUDY    45  45 100 W18G25      N/A
SHEYENNE NWR     N/A     47  43  87 NW15      29.95S
BUFFALO        NOT AVBL
WYNDMERE         N/A     46  43  87 W16         N/A
 ***** THE ABOVE OBSERVATIONS ARE NON NWS ARE NOT QUALITY
       CONTROLLED AND MAY MIS-REPORT RAIN FOR SNOW...
$$

  *****  WEATHER ACROSS NORTHERN MINNESOTA  *****

CITY           SKY/WX    TMP DP  RH WIND       PRES   REMARKS
FLAG ISLAND    LGT RAIN  37  36  93 W6        29.39F
WARROAD        DRIZZLE   37  34  87 W8        29.42R
ROSEAU         LGT RAIN  39  34  81 W12       29.42R
HALLOCK        CLOUDY    37  36  93 NW28G33   29.51R
THF RVR FALLS  CLOUDY    39  39 100 NW17      29.43S
HALSTAD        NOT AVBL
FOSSTON        RAIN      36  34  93 SW16      29.43F
BAUDETTE       LGT RAIN  36  35  96 S7        29.40S
WASKISH        DRIZZLE   37  36  93 S7        29.42R
CROOKSTON      CLOUDY    39  37  93 N28G38    29.48R
$$
  *****  WEATHER ACROSS CENTRAL AND WEST MINNESOTA  *****

CITY           SKY/WX    TMP DP  RH WIND       PRES   REMARKS
BEMIDJI        DRIZZLE   36  34  94 SW10G20   29.43F
PARK RAPIDS    CLOUDY    37  33  85 S14       29.46F
WADENA         CLOUDY    36  32  87 S15       29.48F
DETROIT LAKES  MOCLDY    37  36  93 SW13      29.46F
MOORHEAD       CLOUDY    43  43 100 W12       29.47F
FERGUS FALLS   DRIZZLE   37  36  93 S12       29.52F
ELBOW LAKE     CLOUDY    38  35  87 S13       29.51F
MORRIS MN      CLOUDY    41  36  81 S13       29.53F
STAPLES        CLOUDY    36  30  80 S15       29.51F
WHEATON        MOCLDY    45  37  76 W15G24    29.54F
$$
  *****  WEATHER ELSEWHERE ACROSS MINNESOTA  *****

CITY           SKY/WX    TMP DP  RH WIND       PRES   REMARKS
DULUTH         LGTSLEET  35  25  66 SW22G31   29.56F WCI  23
INTRNTL FALLS  LGT RAIN  35  32  88 VRB5      29.42F
ELY            MOCLDY    36  21  55 S15G22    29.49F
CLOQUET        MIX PCPN  34  27  75 S14G22    29.57F WCI  24
BRAINERD       CLOUDY    36  30  79 S20G25    29.54F
HIBBING        LGT SNOW  32  25  75 S9        29.51F WCI  24
ALEXANDRIA     CLOUDY    38  32  79 S16G23    29.53F
SAINT CLOUD    CLOUDY    35  30  82 S16G26    29.60F
MINNEAPOLIS    CLOUDY    35  29  78 S16       29.70F
$$

  *****  WEATHER ACROSS SOUTH DAKOTA  *****

CITY           SKY/WX    TMP DP  RH WIND       PRES   REMARKS
SIOUX FALLS    CLEAR     44  37  76 W12       29.70R
BROOKINGS      NOT AVBL
WATERTOWN      CLEAR     44  37  76 W14       29.61S
HURON          PTCLDY    45  35  68 W13       29.69R
SISSETON         N/A     46  39  76 W24G35    29.53S
ABERDEEN       PTCLDY    46  37  71 W23G32    29.63R
MITCHELL       CLEAR     47  37  68 W12       29.74R
PIERRE         CLOUDY    46  36  68 NW35G48   29.80R
MOBRIDGE       LGT RAIN  43  38  82 NW28G46   29.76R
RAPID CITY     CLEAR     45  28  51 NW56G75   29.97R
$$

  *****  SOME WEATHER IN NEARBY STATES *****

CITY           SKY/WX    TMP DP  RH WIND       PRES   REMARKS
GLASGOW MT     CLEAR     37  33  85 NW5       30.08R
GREAT FALLS MT CLEAR     39  28  64 SW15      30.16F
CHEYENNE WY    CLEAR     44  18  35 NW21G33   30.15R
SCOTTSBLUFF NE CLEAR     48  24  39 NW33G46   30.08R
OMAHA NE       MOCLDY    43  34  70 S16       29.87F
DES MOINES IA  RAIN      39  32  76 S15       29.88R
DAVENPORT IA   PTCLDY    33  19  56 S13       30.08R WCI  24
CHICAGO IL     MOCLDY    30  14  51 S13       30.13F WCI  20
EAU CLAIRE WI  CLOUDY    35  18  49 S13       29.78F
LA CROSSE WI   MOCLDY    36  20  52 S17G33    29.89F
$$

  *****  SOME NATIONAL WEATHER *****

CITY           SKY/WX    TMP DP  RH WIND       PRES   REMARKS
LA GUARDIA NY  MOCLDY    27   7  42 NW16      30.23R WCI  15
RALEIGH NC     CLEAR     25  13  60 CALM      30.37R
ATLANTA GA     CLEAR     35  14  42 N6        30.33R
NEW ORLEANS LA PTCLDY    58  51  78 E5        30.24R
OKLAHOMA CITY  CLEAR     51  43  74 S15       29.91F
ALBUQUERQUE NM CLEAR     48  14  25 SE8       30.19R
SALT LAKE CITY CLEAR     44  26  49 NW6       30.27S
LOS ANGELES CA FOG       55  55 100 W6        30.04R VSB 1/4
BOISE ID       PTCLDY    41  28  60 SE6       30.30F
SEATTLE WA     CLOUDY    50  43  77 S5        30.29F
$$

*** WEATHER ACROSS MANITOBA...SASKATCHEWAN AND ONTARIO ***
                ***ONTARIO***

CITY           SKY/WX    TMP DP  RH WIND       PRES   REMARKS
GERALDTON      CLOUDY    30  19  64 S14       29.57F WCI  20
THUNDER BAY    CLOUDY    36  21  55 SW9G18    29.60F
SIOUX LOOKOUT  NOT AVBL
TORONTO        PTCLDY    18  10  73 S5        30.25S WCI  11
BIG TROUT LK   LGT SNOW  32  32 100 W5        29.34F
PICKLE LAKE    LGT SNOW  30  28  93 S10       29.35  VSB 1   WCI  21
DRYDEN         LGT SNOW  32  32 100 SW12G17   29.38F WCI  23
KENORA         LGT SNOW  32  32 100 SW9       29.39R VSB 1   WCI  24
$$
                *** MANITOBA***

CITY           SKY/WX    TMP DP  RH WIND       PRES   REMARKS
BRANDON        PTCLDY    34  32  93 NW16      29.75R WCI  23
DAUPHIN        CLEAR     34  30  86 W14       29.74R WCI  24
ISLAND LAKE    FLURRIES  32  30  93 NW13      29.50R WCI  22
PILOT MOUND      N/A     36  34  93 NW15G21     N/A
THE PAS        CLEAR     32  27  80 W9        29.73R WCI  24
THOMPSON       PTCLDY    21  19  93 NW6       29.61R WCI  14
WINNIPEG       MOCLDY    36  32  87 NW25G32   29.58R
LYNN LAKE      CLEAR     25  21  86 NW6       29.62R WCI  18
CHURCHILL      FLURRIES   9   5  85 NE23      29.69R WCI -12
GILLAM         CLOUDY    23  19  86 N17       29.56R WCI   9
$$
                ***SASKATCHEWAN***

CITY           SKY/WX    TMP DP  RH WIND       PRES   REMARKS
ESTEVAN        CLEAR     34  32  93 NW18G26   29.93R WCI  23
KINDERSLEY     PTCLDY    32  30  93 SW5       30.00F
LLOYDMINSTER   CLEAR     32  28  86 W12       29.94S WCI  23
PRINCE ALBERT  MOCLDY    34  27  75 W7        29.87R
REGINA         CLEAR     32  30  93 W9        29.96R WCI  24



USA.gov is the U.S. government's official web portal to all federal, state and local government web resources and services.